Location: Franzen
(48.6167°N, 15.3833°E)
Time: 10:52:04
(UTC+00:00)

USA 306 - Pass Details

Date: 22 April 2021
Orbit: 565 x 575 km, 54.0° (Epoch: 11 May)

Event Time Altitude Azimuth Distance (km) Brightness Sun altitude
Exits shadow 23:43:14 43° 5° (N) 813 4.0 -28.0°
Drops below altitude 10° 23:46:58 10° 62° (ENE) 1,885 6.0 -27.8°
Sets 23:49:19 0° 69° (ENE) 2,786 6.9 -27.8°
